Change the Weather History Date:

Monday, January 27, 2014

  Actual Average Record
Temperature  
Mean Temperature 44 °F 43 °F  
Max Temperature 58 °F 52 °F 73 °F (1999)
Min Temperature 29 °F 34 °F 19 °F (2000)
Degree Days  
Heating Degree Days 21 22  
Month to date heating degree days 778 615  
Since 1 July heating degree days 1935 1783  
Moisture  
Dew Point 25 °F    
Average Humidity 49    
Maximum Humidity 70    
Minimum Humidity 27    
Precipitation  
Precipitation 0.00 in 0.20 in 0.03 in (2007)
Month to date precipitation 2.87 4.01  
Year to date precipitation 2.87 4.01  
Snow  
Snow 0.00 in - - ()
Month to date snowfall T  
Since 1 July snowfall T  
Snow Depth 0.00 in    
Sea Level Pressure  
Sea Level Pressure 29.97 in    
Wind  
Wind Speed 9 mph (West)    
Max Wind Speed 20 mph    
Max Gust Speed 25 mph    
Visibility 10 miles    
Events      
T = Trace of Precipitation, MM = Missing Value Source: NWS Daily Summary

Daily Weather History Graph

Daily Weather History Graph

Search for Another Location

Airport or City:

Trip Planner

Search our weather history database for the weather conditions in past years. The results will help you decide how hot, cold, wet, or windy it might be!

Date:

Astronomy

Jan. 27, 2014 Rise Set
Actual Time 7:37 AM EST 6:03 PM EST
Civil Twilight 7:10 AM EST 6:29 PM EST
Nautical Twilight 6:40 AM EST 6:59 PM EST
Astronomical Twilight 6:11 AM EST 7:29 PM EST
Moon 4:15 AM EST (1/27) 2:50 PM EST (1/27)
Length of Visible Light 11h 18m
Length of Day
10h 25m
Waning Crescent, 15% of the Moon is Illuminated
Jan 27
Waning Crescent
Jan 30
New
Feb 6
First Quarter
Feb 14
Full
Feb 22
Last Quarter

Hourly Weather History & Observations

Time (EST) Temp. Windchill Dew Point Humidity Pressure Visibility Wind Dir Wind Speed Gust Speed Precip Events Conditions
12:53 AM 48.0 °F - 28.0 °F 46% 29.92 in 10.0 mi SSW 6.9 mph - N/A   Overcast
1:53 AM 48.0 °F - 27.0 °F 44% 29.89 in 10.0 mi SSE 3.5 mph - N/A   Overcast
2:53 AM 46.9 °F - 27.0 °F 46% 29.89 in 10.0 mi SSW 5.8 mph - N/A   Overcast
3:53 AM 45.0 °F 43.5 °F 28.9 °F 53% 29.89 in 10.0 mi SSW 3.5 mph - N/A   Overcast
4:53 AM 45.0 °F - 30.0 °F 56% 29.89 in 10.0 mi Calm Calm - N/A   Overcast
5:53 AM 46.0 °F 44.8 °F 30.9 °F 56% 29.92 in 10.0 mi SW 3.5 mph - N/A   Overcast
6:53 AM 44.1 °F 42.5 °F 32.0 °F 63% 29.93 in 10.0 mi SW 3.5 mph - N/A   Mostly Cloudy
7:53 AM 41.0 °F 38.0 °F 32.0 °F 70% 29.93 in 10.0 mi South 4.6 mph - N/A   Clear
8:53 AM 46.0 °F 43.9 °F 34.0 °F 63% 29.94 in 10.0 mi SW 4.6 mph - N/A   Clear
9:53 AM 50.0 °F - 36.0 °F 59% 29.95 in 10.0 mi West 10.4 mph - N/A   Clear
10:53 AM 54.0 °F - 36.0 °F 51% 29.94 in 10.0 mi NW 9.2 mph - N/A   Clear
11:53 AM 57.0 °F - 34.0 °F 42% 29.94 in 10.0 mi NW 12.7 mph - N/A   Clear
12:53 PM 55.9 °F - 33.1 °F 42% 29.93 in 10.0 mi NW 11.5 mph - N/A   Clear
1:53 PM 55.0 °F - 32.0 °F 42% 29.92 in 10.0 mi NW 10.4 mph 19.6 mph N/A   Mostly Cloudy
2:53 PM 57.0 °F - 32.0 °F 39% 29.93 in 10.0 mi NW 12.7 mph - N/A   Overcast
3:53 PM 54.0 °F - 30.9 °F 41% 29.94 in 10.0 mi West 13.8 mph 21.9 mph N/A   Clear
4:53 PM 52.0 °F - 28.9 °F 41% 29.96 in 10.0 mi WNW 12.7 mph - N/A   Clear
5:53 PM 46.0 °F 40.6 °F 23.0 °F 40% 30.00 in 10.0 mi NNW 11.5 mph - N/A   Clear
6:53 PM 43.0 °F 36.4 °F 19.0 °F 38% 30.03 in 10.0 mi NW 12.7 mph - N/A   Clear
7:53 PM 39.9 °F 30.8 °F 10.9 °F 31% 30.06 in 10.0 mi NW 18.4 mph - N/A   Clear
8:53 PM 36.0 °F 27.5 °F 5.0 °F 27% 30.09 in 10.0 mi NW 12.7 mph - N/A   Clear
9:53 PM 34.0 °F 25.0 °F 3.9 °F 28% 30.11 in 10.0 mi NW 12.7 mph - N/A   Clear
10:53 PM 30.9 °F 21.7 °F 3.9 °F 32% 30.12 in 10.0 mi NW 11.5 mph - N/A   Clear
11:53 PM 28.9 °F 19.2 °F 3.9 °F 35% 30.11 in 10.0 mi NW 11.5 mph - N/A   Clear